Location: Arnolds Mill
(42.3415°N, 73.5951°W)
Time: 12:32:16
(UTC+00:00)

STARLINK-34423 - Pass Details

Date: 23 June 2025
Orbit: 300 x 301 km, 53.2° (Epoch: 26 June)

Event Time Altitude Azimuth Distance (km) Brightness Sun altitude
Exits shadow 05:56:53 19° 348° (NNW) 811 5.2 -22.8°
Drops below altitude 10° 05:58:31 10° 26° (NNE) 1,174 6.4 -22.7°
Sets 06:00:47 0° 45° (NE) 1,997 7.5 -22.6°
